Date Heure 871 666 mesures / 24h          Message   (150)           Tout (17786)
31/08/2026 06h 56' 56" Ping reçu, 3342
31/08/2026 06h 56' 52" Ping reçu, 3341
31/08/2026 06h 56' 48" Ping reçu,         3340
31/08/2026 06h 56' 44" Ping reçu, 3339
31/08/2026 06h 56' 38" cPing.
31/08/2026 06h 56' 35" Ping reçu, 3337
31/08/2026 06h 56' 26" Ping reçu,         3335
31/08/2026 06h 56' 22" Ping reçu, 3334
31/08/2026 06h 56' 18" Ping reçu, 3333
31/08/2026 06h 56' 09" Ping reçu, 3331
31/08/2026 06h 56' 05" Ping reçu,         3330
31/08/2026 06h 56' 02" Ping reçu, 3329
31/08/2026 06h 55' 54" Ping reçu, 3327
31/08/2026 06h 55' 41" cPing.
31/08/2026 06h 55' 36" Ping reçu, 3323
31/08/2026 06h 55' 32" Ping reçu, 3322
31/08/2026 06h 55' 27" Ping reçu, 3321
31/08/2026 06h 55' 23" Ping reçu,         3320
31/08/2026 06h 55' 11" Ping reçu, 3317
31/08/2026 06h 55' 09" Enregistrement de l'éclairement (345.6 lux & 0 lux )
31/08/2026 06h 55' 04" Ping reçu,         3315
31/08/2026 06h 55' 00" Ping reçu, 3314
31/08/2026 06h 54' 51" Ping reçu, 3312
31/08/2026 06h 54' 47" Ping reçu, 3311
31/08/2026 06h 54' 44" cPing.
31/08/2026 06h 54' 38" Ping reçu, 3309
31/08/2026 06h 54' 24" Ping reçu, 3306
31/08/2026 06h 54' 20" Ping reçu,         3305
31/08/2026 06h 54' 16" Ping reçu, 3304
31/08/2026 06h 54' 15" ERR. Ther. 14 HS.
31/08/2026 06h 54' 14" ERR. Ther. 1 HS.
31/08/2026 06h 54' 12" Ping reçu, 3303
31/08/2026 06h 54' 08" Ping reçu, 3302
31/08/2026 06h 54' 05" Ping reçu, 3301
31/08/2026 06h 54' 03" Enregistrement de la température (17,122 °C)
31/08/2026 06h 54' 02" Enregistrement de l'éclairement (345.6 lux & 0 lux )
31/08/2026 06h 53' 56" Ping reçu, 3299
31/08/2026 06h 53' 52" Ping reçu, 3298
31/08/2026 06h 53' 48" Ping reçu, 3297
31/08/2026 06h 53' 48" cPing.
31/08/2026 06h 53' 44" Ping reçu, 3296
31/08/2026 06h 53' 39" Ping reçu,         3295
31/08/2026 06h 53' 35" Ping reçu, 3294
31/08/2026 06h 53' 27" Ping reçu, 3292
31/08/2026 06h 53' 15" Ping reçu, 3289
31/08/2026 06h 53' 03" Ping reçu, 3287
31/08/2026 06h 52' 59" Ping reçu, 3286
31/08/2026 06h 52' 54" Ping reçu,         3285
31/08/2026 06h 52' 53" Enregistrement de l'éclairement (345.6 lux & 0 lux )
31/08/2026 06h 52' 53" cPing.
31/08/2026 06h 52' 50" Ping reçu, 3284
31/08/2026 06h 52' 46" Ping reçu, 3283
31/08/2026 06h 52' 42" Ping reçu, 3282
31/08/2026 06h 52' 35" Ping reçu,         3280
31/08/2026 06h 52' 24" Ping reçu, 3278
31/08/2026 06h 52' 20" Ping reçu, 3277
31/08/2026 06h 52' 17" Ping reçu, 3276
31/08/2026 06h 52' 13" Ping reçu,         3275
31/08/2026 06h 52' 09" Ping reçu, 3274
31/08/2026 06h 52' 05" Ping reçu, 3273
31/08/2026 06h 51' 56" cPing.
31/08/2026 06h 51' 52" Ping reçu,         3270
31/08/2026 06h 51' 46" Enregistrement de l'éclairement (345.6 lux & 0 lux )
31/08/2026 06h 51' 39" Ping reçu, 3267
31/08/2026 06h 51' 27" Ping reçu, 3264
31/08/2026 06h 51' 23" Ping reçu, 3263
31/08/2026 06h 51' 19" Ping reçu, 3262
31/08/2026 06h 51' 15" Ping reçu, 3261
31/08/2026 06h 51' 06" Ping reçu, 3259
31/08/2026 06h 51' 01" cPing.
31/08/2026 06h 50' 57" Ping reçu, 3257
31/08/2026 06h 50' 53" Ping reçu, 3256
31/08/2026 06h 50' 44" Ping reçu, 3254
31/08/2026 06h 50' 40" Ping reçu, 3253
31/08/2026 06h 50' 39" Enregistrement de l'éclairement (345.6 lux & 0 lux )
31/08/2026 06h 50' 36" Ping reçu, 3252
31/08/2026 06h 50' 33" Ping reçu, 3251
31/08/2026 06h 50' 30" Ping reçu,         3250
31/08/2026 06h 50' 21" Ping reçu, 3248
31/08/2026 06h 50' 17" ERR. Ther. 14 HS.
31/08/2026 06h 50' 17" Ping reçu, 1
31/08/2026 06h 50' 17" ERR. Ther. 1 HS.
31/08/2026 06h 50' 16" Enregistrement de l'Arduino : (22,0 °C)
31/08/2026 06h 50' 12" Ping reçu, 3247
31/08/2026 06h 50' 08" Ping reçu, 3246
31/08/2026 06h 50' 04" cPing.
31/08/2026 06h 50' 03" On a tout sauvé !
31/08/2026 06h 49' 50" Ping reçu, 3242
31/08/2026 06h 49' 45" Ping reçu, 3241
31/08/2026 06h 49' 44" Enregistrement de la température (17,161 °C)
31/08/2026 06h 49' 41" Ping reçu,         3240
31/08/2026 06h 49' 36" Ping reçu, 3239
31/08/2026 06h 49' 32" Ping reçu, 3238
31/08/2026 06h 49' 27" Enregistrement de l'éclairement (345.6 lux & 0 lux )
31/08/2026 06h 49' 24" Ping reçu, 3236
31/08/2026 06h 49' 21" Ping reçu,         3235
31/08/2026 06h 49' 12" Ping reçu, 3233
31/08/2026 06h 49' 09" cPing.
31/08/2026 06h 49' 08" Ping reçu, 3232
31/08/2026 06h 49' 04" Ping reçu, 3231
31/08/2026 06h 49' 00" Ping reçu,         3230
31/08/2026 06h 48' 56" Ping reçu, 3229
31/08/2026 06h 48' 47" Ping reçu, 3227
31/08/2026 06h 48' 38" Ping reçu,         3225
31/08/2026 06h 48' 33" Ping reçu, 3224
31/08/2026 06h 48' 30" Ping reçu, 3223
31/08/2026 06h 48' 25" Ping reçu, 3222
31/08/2026 06h 48' 21" Ping reçu, 3221
31/08/2026 06h 48' 19" Enregistrement de l'humidité (99,90 %)
31/08/2026 06h 48' 17" Ping reçu,         3220
31/08/2026 06h 48' 12" Ping reçu, 3219
31/08/2026 06h 48' 12" cPing.
31/08/2026 06h 48' 09" Ping reçu, 3218
31/08/2026 06h 48' 05" Ping reçu, 3217
31/08/2026 06h 47' 56" Ping reçu,         3215
31/08/2026 06h 47' 48" Ping reçu, 3213
31/08/2026 06h 47' 35" Ping reçu,         3210
31/08/2026 06h 47' 31" Ping reçu, 3209
31/08/2026 06h 47' 26" Ping reçu, 3208
31/08/2026 06h 47' 22" Ping reçu, 3207
31/08/2026 06h 47' 18" Ping reçu, 3206
31/08/2026 06h 47' 17" cPing.
31/08/2026 06h 47' 14" Ping reçu,         3205
31/08/2026 06h 47' 07" Ping reçu, 3203
31/08/2026 06h 47' 03" Ping reçu, 3202
31/08/2026 06h 46' 54" Ping reçu,         3200
31/08/2026 06h 46' 48" Ping reçu, 3199
31/08/2026 06h 46' 42" Ping reçu, 3198
31/08/2026 06h 46' 35" Ping reçu, 3196
31/08/2026 06h 46' 22" Ping reçu, 3193
31/08/2026 06h 46' 21" cPing.
31/08/2026 06h 46' 18" Ping reçu, 3192
31/08/2026 06h 46' 14" ERR. Ther. 1 HS.
31/08/2026 06h 46' 14" ERR. Ther. 14 HS.
31/08/2026 06h 46' 14" Ping reçu, 3191
31/08/2026 06h 46' 09" Ping reçu,         3190
31/08/2026 06h 46' 05" Ping reçu, 3189
31/08/2026 06h 45' 52" Ping reçu, 3186
31/08/2026 06h 45' 48" Ping reçu,         3185
31/08/2026 06h 45' 30" Ping reçu, 3181
31/08/2026 06h 45' 29" Enregistrement de la température (17,213 °C)
31/08/2026 06h 45' 24" cPing.
31/08/2026 06h 45' 23" Ping reçu, 3179
31/08/2026 06h 45' 19" Ping reçu, 3178
31/08/2026 06h 45' 06" Ping reçu,         3175
31/08/2026 06h 45' 02" Ping reçu, 3174
31/08/2026 06h 44' 57" Ping reçu, 3173
31/08/2026 06h 44' 53" Ping reçu, 3172
31/08/2026 06h 44' 45" Ping reçu,         3170
31/08/2026 06h 44' 42" Ping reçu, 3169
      |         Voir Tout